Flag for U.S.A. Weather past 2 weeks in Avalon (Santa Catalina Island), California, U.S.A.

Now
74 °F

Clear.


Feels Like: 77 °F
Forecast: 68 / 76 °F
Wind: 5 mph from Southwest

Location: Catalina Airport

Current Time: Jul 1, 2015 at 11:10:01 PM

Latest Report: Jul 1, 2015 at 10:51 PM


Visibility: 10 mi

Pressure: 29.91 "Hg

Humidity: 43%

Dew point: 50 °F

Location of Avalon (Santa Catalina Island)Location

Historic Weather in Avalon (Santa Catalina Island) — Graph

°F

Avalon (Santa Catalina Island) temperature yesterday

Maximum temperature yesterday: 85 °F (at 12:51 PM)
Minimum temperature yesterday: 72 °F (at 7:51 PM)
Average temperature yesterday: 79 °F

Past Weeks' High & Low Weather Summary

 TemperatureHumidityPressure
High87 °F (Jun 29, 9:51 AM)100% (Jun 25, 3:51 AM)30.01 "Hg (Jun 25, 3:51 AM)
Low55 °F (Jun 25, 5:51 AM)16% (Jun 18, 7:51 PM)29.75 "Hg (Jun 20, 2:51 AM)
Average72 °F47%29.88 "Hg
* Reported Jun 17 3:51 AM — Jul 1 9:51 PM, Avalon (Santa Catalina Island), Weather by CustomWeather, © 2015

Note: Actual official high and low records may vary slightly from our data, if they occured in-between our weather recording intervals... More about our weather records

Advertising

Avalon (Santa Catalina Island) weather history for previous 24 hours

 ConditionsComfort  
Time TempWeatherWind HumidityBarometerVisibility
9:51 PM
Wed, Jul 1
72 °FClear.No wind52%29.91 "Hg10 mi
8:51 PM69 °FSunny.No wind53%29.92 "Hg10 mi
7:51 PM72 °FSunny.No wind49%29.90 "Hg10 mi
6:51 PM73 °FSunny.No wind53%29.88 "Hg10 mi
5:51 PM72 °FSunny.6 mph66%29.88 "Hg10 mi
4:51 PM76 °FSunny.3 mph56%29.88 "Hg10 mi
3:51 PM78 °FSunny.7 mph52%29.89 "Hg10 mi
2:51 PM83 °FSunny.No wind32%29.89 "Hg10 mi
1:51 PM84 °FSunny.8 mph30%29.87 "Hg10 mi
12:51 PM80 °FSunny.5 mph36%29.88 "Hg10 mi
11:51 AM81 °FSunny.3 mph34%29.89 "Hg10 mi
10:51 AM80 °FPassing clouds.No wind44%29.89 "Hg10 mi
9:51 AM83 °FSunny.6 mph27%29.88 "Hg10 mi
8:51 AM72 °FPassing clouds.6 mph55%29.90 "Hg10 mi
7:51 AM78 °FPassing clouds.6 mph29%29.88 "Hg10 mi
6:51 AM76 °FSunny.5 mph33%29.88 "Hg10 mi
5:51 AM73 °FClear.6 mph34%29.87 "Hg10 mi
4:51 AM66 °FClear.10 mph75%29.88 "Hg10 mi
3:51 AM68 °FClear.13 mph63%29.85 "Hg10 mi
2:51 AM72 °FClear.8 mph46%29.82 "Hg10 mi
1:51 AM78 °FClear.6 mph28%29.79 "Hg10 mi
12:51 AM79 °FClear.5 mph27%29.82 "Hg10 mi
11:51 PM
Tue, Jun 30
80 °FClear.7 mph27%29.83 "Hg10 mi
Weather by CustomWeather, © 2015

See weather overviewHow to use our weather pages